QPF
0.00 0.00 0.00 0.00 0.00 0.00 0.00 0.00 0.00 0.00 0.00 0.00 0.00 0.00 0.00 0.00 0.01 0.01 0.01 0.02 0.02 0.02 0.03 0.04 0.04 0.03 0.02 0.02 0.03 0.04 0.04 0.04 0.03 0.03 0.04 0.04 0.03 0.03 0.03 0.03 0.02 0.02 0.03 0.05 0.03 0.02 0.02 0.02 0.02
0.00 0.00 0.00 0.01 0.00 0.00 0.00 0.00 0.00 0.00 0.00 0.00 0.00 0.00 0.00 0.00 0.00 0.00 0.01 0.02 0.02 0.02 0.03 0.03 0.04 0.04 0.03 0.02 0.03 0.04 0.05 0.05 0.04 0.04 0.04 0.06 0.04 0.03 0.03 0.03 0.02 0.03 0.04 0.05 0.03 0.02 0.02 0.02 0.02
0.01 0.01 0.01 0.01 0.01 0.00 0.00 0.01 0.00 0.00 0.00 0.00 0.00 0.00 0.00 0.00 0.00 0.01 0.01 0.02 0.02 0.02 0.03 0.04 0.04 0.04 0.04 0.04 0.04 0.04 0.05 0.05 0.05 0.04 0.04 0.06 0.05 0.03 0.04 0.04 0.03 0.04 0.04 0.03 0.02 0.02 0.02 0.02 0.02
0.01 0.02 0.01 0.02 0.01 0.00 0.00 0.00 0.00 0.00 0.00 0.00 0.00 0.00 0.00 0.00 0.01 0.01 0.01 0.01 0.01 0.02 0.02 0.03 0.05 0.05 0.05 0.05 0.04 0.05 0.05 0.06 0.05 0.04 0.04 0.06 0.06 0.04 0.04 0.03 0.03 0.03 0.03 0.02 0.02 0.02 0.02 0.02 0.01
0.02 0.02 0.02 0.01 0.00 0.00 0.00 0.00 0.00 0.00 0.00 0.00 0.00 0.00 0.00 0.01 0.01 0.02 0.01 0.01 0.01 0.02 0.02 0.02 0.04 0.04 0.05 0.06 0.06 0.06 0.07 0.07 0.05 0.04 0.04 0.06 0.07 0.06 0.04 0.04 0.03 0.03 0.03 0.02 0.02 0.02 0.02 0.02 0.01
0.03 0.03 0.02 0.01 0.00 0.00 0.00 0.00 0.00 0.00 0.00 0.00 0.00 0.00 0.01 0.01 0.01 0.01 0.01 0.01 0.01 0.01 0.02 0.02 0.03 0.03 0.04 0.06 0.07 0.08 0.07 0.06 0.05 0.04 0.05 0.06 0.06 0.05 0.05 0.05 0.03 0.03 0.03 0.02 0.03 0.03 0.02 0.01 0.01
0.03 0.03 0.02 0.01 0.00 0.00 0.00 0.00 0.00 0.00 0.00 0.00 0.00 0.00 0.00 0.01 0.01 0.01 0.01 0.01 0.01 0.01 0.02 0.02 0.01 0.02 0.05 0.07 0.06 0.06 0.09 0.07 0.05 0.04 0.06 0.06 0.06 0.05 0.05 0.05 0.04 0.03 0.03 0.02 0.03 0.03 0.03 0.02 0.02
0.02 0.02 0.01 0.00 0.00 0.00 0.00 0.00 0.00 0.00 0.00 0.00 0.00 0.00 0.00 0.01 0.01 0.01 0.01 0.01 0.01 0.01 0.02 0.02 0.02 0.01 0.03 0.06 0.09 0.08 0.10 0.11 0.06 0.04 0.05 0.05 0.04 0.05 0.05 0.05 0.05 0.03 0.03 0.03 0.03 0.02 0.03 0.03 0.03
0.02 0.02 0.01 0.00 0.00 0.00 0.00 0.00 0.00 0.00 0.00 0.00 0.00 0.00 0.00 0.01 0.01 0.01 0.01 0.01 0.01 0.02 0.02 0.02 0.02 0.02 0.04 0.06 0.07 0.09 0.11 0.15 0.10 0.06 0.05 0.04 0.04 0.05 0.05 0.05 0.06 0.05 0.03 0.03 0.03 0.02 0.05 0.05 0.04
0.02 0.01 0.01 0.00 0.00 0.00 0.00 0.00 0.00 0.00 0.00 0.00 0.00 0.00 0.00 0.01 0.01 0.01 0.01 0.01 0.01 0.01 0.02 0.02 0.03 0.03 0.04 0.06 0.08 0.08 0.13 0.20 0.15 0.07 0.05 0.04 0.04 0.04 0.06 0.06 0.06 0.05 0.04 0.03 0.03 0.02 0.03 0.05 0.05
0.02 0.02 0.01 0.00 0.00 0.00 0.00 0.00 0.00 0.00 0.00 0.00 0.01 0.00 0.00 0.01 0.02 0.02 0.01 0.02 0.01 0.01 0.01 0.02 0.02 0.03 0.04 0.05 0.06 0.09 0.11 0.18 0.20 0.12 0.06 0.04 0.04 0.05 0.05 0.05 0.06 0.05 0.04 0.03 0.03 0.03 0.02 0.02 0.03
0.03 0.02 0.01 0.01 0.00 0.00 0.00 0.00 0.00 0.00 0.00 0.00 0.00 0.00 0.01 0.02 0.03 0.03 0.02 0.02 0.02 0.02 0.02 0.01 0.02 0.03 0.04 0.04 0.05 0.08 0.10 0.15 0.18 0.12 0.07 0.04 0.04 0.04 0.04 0.04 0.05 0.05 0.04 0.04 0.04 0.03 0.03 0.03 0.04
0.03 0.01 0.01 0.01 0.00 0.00 0.00 0.00 0.00 0.00 0.00 0.00 0.01 0.01 0.01 0.03 0.03 0.03 0.02 0.01 0.01 0.02 0.03 0.03 0.03 0.04 0.04 0.05 0.05 0.07 0.10 0.14 0.16 0.12 0.08 0.05 0.05 0.05 0.05 0.05 0.05 0.05 0.04 0.05 0.05 0.04 0.03 0.03 0.04
0.03 0.01 0.01 0.01 0.00 0.00 0.00 0.00 0.00 0.00 0.00 0.01 0.01 0.02 0.01 0.03 0.03 0.03 0.03 0.02 0.01 0.01 0.03 0.04 0.04 0.05 0.05 0.05 0.06 0.06 0.11 0.14 0.18 0.13 0.08 0.06 0.05 0.07 0.08 0.06 0.06 0.06 0.05 0.05 0.06 0.06 0.05 0.04 0.03
0.02 0.01 0.01 0.01 0.00 0.00 0.00 0.00 0.00 0.00 0.00 0.00 0.01 0.01 0.02 0.02 0.03 0.04 0.05 0.03 0.02 0.01 0.02 0.03 0.04 0.05 0.06 0.07 0.07 0.06 0.09 0.17 0.19 0.15 0.08 0.06 0.05 0.05 0.08 0.07 0.07 0.05 0.04 0.04 0.06 0.06 0.06 0.04 0.03
0.01 0.01 0.01 0.01 0.00 0.00 0.01 0.00 0.00 0.00 0.00 0.00 0.00 0.01 0.01 0.02 0.02 0.03 0.04 0.04 0.03 0.01 0.02 0.03 0.04 0.05 0.05 0.06 0.07 0.07 0.09 0.16 0.21 0.18 0.11 0.07 0.07 0.06 0.07 0.07 0.07 0.06 0.05 0.04 0.06 0.08 0.08 0.06 0.03
0.01 0.01 0.01 0.01 0.01 0.01 0.01 0.01 0.00 0.00 0.00 0.00 0.00 0.01 0.01 0.01 0.02 0.02 0.03 0.03 0.03 0.02 0.02 0.02 0.04 0.05 0.06 0.04 0.05 0.06 0.07 0.12 0.19 0.19 0.14 0.10 0.09 0.07 0.06 0.06 0.06 0.06 0.05 0.05 0.06 0.06 0.07 0.08 0.06
0.01 0.01 0.01 0.01 0.01 0.01 0.01 0.01 0.01 0.01 0.01 0.01 0.01 0.01 0.01 0.01 0.01 0.02 0.02 0.03 0.04 0.04 0.03 0.03 0.04 0.05 0.06 0.06 0.06 0.08 0.09 0.12 0.16 0.17 0.16 0.11 0.09 0.07 0.06 0.06 0.06 0.06 0.06 0.05 0.05 0.05 0.04 0.05 0.09
0.01 0.00 0.00 0.00 0.00 0.00 0.01 0.01 0.02 0.02 0.02 0.02 0.02 0.02 0.02 0.02 0.02 0.02 0.02 0.02 0.03 0.04 0.05 0.05 0.05 0.05 0.06 0.06 0.06 0.07 0.10 0.12 0.15 0.16 0.17 0.13 0.09 0.07 0.07 0.07 0.06 0.06 0.06 0.05 0.03 0.03 0.03 0.04 0.05
0.01 0.01 0.00 0.00 0.00 0.01 0.01 0.01 0.02 0.02 0.02 0.02 0.03 0.04 0.03 0.02 0.02 0.02 0.02 0.02 0.03 0.04 0.05 0.06 0.06 0.07 0.07 0.07 0.06 0.06 0.09 0.11 0.15 0.16 0.16 0.14 0.10 0.08 0.08 0.08 0.08 0.07 0.05 0.04 0.04 0.04 0.04 0.05 0.05
0.01 0.01 0.00 0.01 0.01 0.01 0.02 0.03 0.02 0.02 0.02 0.02 0.05 0.07 0.05 0.02 0.02 0.02 0.02 0.03 0.02 0.03 0.05 0.06 0.08 0.09 0.09 0.09 0.10 0.09 0.09 0.10 0.14 0.16 0.15 0.14 0.11 0.08 0.07 0.07 0.08 0.08 0.07 0.05 0.03 0.04 0.05 0.05 0.05
0.01 0.01 0.00 0.00 0.01 0.03 0.03 0.03 0.03 0.02 0.02 0.02 0.04 0.06 0.06 0.05 0.02 0.02 0.02 0.03 0.03 0.02 0.03 0.06 0.08 0.09 0.11 0.11 0.11 0.10 0.08 0.07 0.10 0.13 0.13 0.12 0.12 0.10 0.06 0.06 0.07 0.08 0.08 0.06 0.04 0.03 0.03 0.03 0.04
0.01 0.01 0.01 0.01 0.01 0.02 0.03 0.03 0.02 0.01 0.02 0.02 0.03 0.04 0.07 0.07 0.05 0.03 0.02 0.03 0.03 0.03 0.02 0.04 0.06 0.08 0.11 0.14 0.14 0.12 0.08 0.07 0.07 0.10 0.11 0.11 0.10 0.10 0.07 0.06 0.07 0.07 0.08 0.06 0.04 0.03 0.03 0.02 0.03
0.01 0.01 0.02 0.02 0.02 0.04 0.03 0.03 0.03 0.04 0.05 0.04 0.03 0.03 0.04 0.06 0.07 0.06 0.04 0.03 0.03 0.03 0.03 0.02 0.04 0.07 0.10 0.16 0.19 0.15 0.11 0.08 0.08 0.08 0.10 0.11 0.09 0.09 0.08 0.05 0.06 0.08 0.07 0.07 0.05 0.03 0.03 0.03 0.02
0.02 0.02 0.03 0.04 0.04 0.03 0.02 0.03 0.05 0.06 0.05 0.05 0.05 0.04 0.03 0.03 0.03 0.04 0.05 0.04 0.03 0.03 0.04 0.03 0.03 0.05 0.10 0.16 0.20 0.15 0.12 0.09 0.09 0.10 0.08 0.10 0.10 0.09 0.08 0.06 0.05 0.08 0.07 0.06 0.05 0.04 0.04 0.03 0.03
0.02 0.02 0.02 0.02 0.02 0.01 0.02 0.03 0.04 0.04 0.03 0.04 0.05 0.04 0.03 0.03 0.03 0.03 0.02 0.03 0.03 0.02 0.03 0.07 0.05 0.04 0.07 0.14 0.22 0.17 0.10 0.08 0.06 0.07 0.08 0.10 0.09 0.08 0.09 0.08 0.06 0.08 0.09 0.07 0.06 0.04 0.04 0.04 0.05
0.01 0.02 0.02 0.02 0.01 0.01 0.02 0.02 0.02 0.01 0.01 0.02 0.03 0.03 0.03 0.04 0.04 0.04 0.04 0.04 0.03 0.01 0.02 0.04 0.07 0.06 0.06 0.10 0.17 0.20 0.13 0.08 0.05 0.04 0.04 0.07 0.10 0.08 0.09 0.10 0.08 0.08 0.10 0.08 0.06 0.04 0.03 0.03 0.03
0.01 0.01 0.02 0.03 0.03 0.02 0.01 0.02 0.03 0.02 0.01 0.02 0.02 0.03 0.03 0.03 0.04 0.05 0.05 0.03 0.03 0.02 0.02 0.02 0.04 0.08 0.10 0.10 0.11 0.16 0.14 0.11 0.07 0.04 0.03 0.04 0.05 0.06 0.06 0.09 0.09 0.09 0.10 0.10 0.06 0.04 0.03 0.03 0.02
0.01 0.01 0.01 0.02 0.03 0.03 0.02 0.03 0.04 0.03 0.02 0.02 0.03 0.04 0.04 0.03 0.03 0.04 0.03 0.02 0.03 0.03 0.03 0.02 0.04 0.06 0.09 0.11 0.11 0.12 0.13 0.12 0.10 0.07 0.04 0.03 0.04 0.05 0.06 0.06 0.06 0.07 0.09 0.10 0.08 0.05 0.03 0.02 0.02
0.00 0.00 0.01 0.02 0.03 0.03 0.03 0.02 0.02 0.01 0.01 0.02 0.02 0.04 0.04 0.03 0.02 0.02 0.03 0.03 0.02 0.02 0.03 0.03 0.04 0.06 0.07 0.07 0.08 0.09 0.11 0.11 0.10 0.08 0.07 0.05 0.04 0.05 0.06 0.08 0.07 0.06 0.07 0.09 0.09 0.06 0.04 0.03 0.02
MSLP
1014.69 1015.27 1016.36 1017.84 1019.54 1021.26 1022.79 1023.98 1024.76 1025.14 1025.26 1025.29 1025.40 1025.74 1026.37 1027.24 1028.25 1029.21 1029.93 1030.27 1030.13 1029.53 1028.54 1027.31 1025.99 1024.72 1023.60 1022.66 1021.89 1021.24 1020.67 1020.14 1019.64 1019.19 1018.83 1018.60 1018.52 1018.58 1018.75 1018.97 1019.17 1019.31 1019.37 1019.34 1019.26 1019.17 1019.10 1019.07 1019.08
1015.11 1015.98 1017.34 1019.04 1020.90 1022.68 1024.20 1025.33 1026.04 1026.36 1026.46 1026.51 1026.68 1027.08 1027.74 1028.62 1029.57 1030.42 1030.99 1031.16 1030.88 1030.16 1029.12 1027.89 1026.61 1025.41 1024.35 1023.45 1022.68 1022.00 1021.35 1020.72 1020.10 1019.55 1019.10 1018.81 1018.69 1018.72 1018.88 1019.10 1019.30 1019.46 1019.52 1019.51 1019.45 1019.37 1019.31 1019.29 1019.31
1015.72 1016.86 1018.45 1020.32 1022.25 1024.04 1025.50 1026.54 1027.16 1027.44 1027.53 1027.61 1027.83 1028.28 1028.97 1029.82 1030.68 1031.39 1031.79 1031.80 1031.38 1030.59 1029.53 1028.34 1027.15 1026.05 1025.08 1024.24 1023.49 1022.76 1022.04 1021.30 1020.56 1019.89 1019.34 1018.96 1018.78 1018.77 1018.91 1019.12 1019.33 1019.50 1019.59 1019.61 1019.58 1019.53 1019.50 1019.50 1019.54
1016.57 1017.95 1019.71 1021.67 1023.61 1025.33 1026.68 1027.61 1028.14 1028.36 1028.46 1028.58 1028.85 1029.33 1030.01 1030.79 1031.53 1032.08 1032.30 1032.15 1031.62 1030.79 1029.76 1028.65 1027.58 1026.61 1025.76 1024.99 1024.26 1023.50 1022.70 1021.86 1021.01 1020.22 1019.57 1019.09 1018.83 1018.77 1018.87 1019.06 1019.27 1019.46 1019.59 1019.66 1019.69 1019.69 1019.71 1019.74 1019.81
1017.68 1019.25 1021.12 1023.09 1024.96 1026.55 1027.76 1028.55 1028.98 1029.16 1029.26 1029.42 1029.73 1030.22 1030.86 1031.54 1032.13 1032.50 1032.54 1032.25 1031.64 1030.79 1029.82 1028.84 1027.92 1027.10 1026.37 1025.68 1024.98 1024.21 1023.34 1022.41 1021.46 1020.57 1019.81 1019.25 1018.91 1018.78 1018.82 1018.98 1019.19 1019.40 1019.57 1019.70 1019.79 1019.87 1019.94 1020.02 1020.11
1019.04 1020.75 1022.66 1024.56 1026.29 1027.71 1028.73 1029.37 1029.70 1029.85 1029.96 1030.15 1030.49 1030.97 1031.54 1032.10 1032.52 1032.70 1032.58 1032.16 1031.49 1030.67 1029.79 1028.94 1028.18 1027.52 1026.92 1026.31 1025.64 1024.86 1023.96 1022.97 1021.95 1020.97 1020.13 1019.49 1019.06 1018.85 1018.82 1018.94 1019.12 1019.34 1019.55 1019.74 1019.90 1020.06 1020.19 1020.32 1020.43
1020.60 1022.38 1024.25 1026.03 1027.56 1028.76 1029.58 1030.07 1030.31 1030.43 1030.56 1030.79 1031.14 1031.60 1032.08 1032.50 1032.75 1032.75 1032.48 1031.97 1031.28 1030.50 1029.73 1029.03 1028.43 1027.90 1027.41 1026.88 1026.25 1025.48 1024.56 1023.54 1022.48 1021.46 1020.56 1019.84 1019.33 1019.03 1018.92 1018.96 1019.10 1019.29 1019.52 1019.77 1020.00 1020.23 1020.43 1020.60 1020.74
1022.26 1024.04 1025.81 1027.40 1028.70 1029.66 1030.28 1030.62 1030.79 1030.91 1031.07 1031.33 1031.69 1032.11 1032.51 1032.80 1032.89 1032.74 1032.35 1031.78 1031.09 1030.38 1029.72 1029.15 1028.68 1028.28 1027.87 1027.40 1026.80 1026.04 1025.13 1024.12 1023.05 1022.02 1021.10 1020.32 1019.73 1019.33 1019.11 1019.04 1019.10 1019.26 1019.49 1019.76 1020.06 1020.35 1020.62 1020.84 1021.00
1023.92 1025.63 1027.23 1028.60 1029.66 1030.37 1030.80 1031.02 1031.13 1031.25 1031.45 1031.75 1032.12 1032.52 1032.84 1033.01 1032.98 1032.71 1032.25 1031.65 1030.99 1030.36 1029.80 1029.34 1028.98 1028.65 1028.30 1027.85 1027.27 1026.53 1025.65 1024.66 1023.63 1022.62 1021.69 1020.88 1020.22 1019.71 1019.36 1019.17 1019.12 1019.21 1019.41 1019.70 1020.04 1020.39 1020.72 1020.99 1021.18
1025.46 1027.05 1028.46 1029.57 1030.37 1030.86 1031.11 1031.23 1031.31 1031.46 1031.70 1032.04 1032.44 1032.81 1033.07 1033.15 1033.03 1032.69 1032.19 1031.61 1031.00 1030.45 1029.98 1029.61 1029.31 1029.01 1028.67 1028.22 1027.63 1026.90 1026.05 1025.12 1024.15 1023.19 1022.28 1021.45 1020.72 1020.10 1019.62 1019.29 1019.12 1019.11 1019.26 1019.54 1019.92 1020.34 1020.73 1021.05 1021.28
1026.83 1028.25 1029.42 1030.28 1030.83 1031.11 1031.22 1031.27 1031.35 1031.53 1031.82 1032.21 1032.62 1032.98 1033.19 1033.22 1033.04 1032.68 1032.18 1031.64 1031.10 1030.63 1030.24 1029.92 1029.63 1029.33 1028.95 1028.46 1027.86 1027.13 1026.32 1025.44 1024.54 1023.65 1022.78 1021.94 1021.16 1020.44 1019.83 1019.35 1019.05 1018.94 1019.03 1019.31 1019.71 1020.19 1020.65 1021.04 1021.32
1028.01 1029.22 1030.15 1030.76 1031.08 1031.19 1031.19 1031.19 1031.27 1031.50 1031.84 1032.27 1032.70 1033.04 1033.22 1033.22 1033.02 1032.65 1032.19 1031.70 1031.23 1030.83 1030.50 1030.20 1029.90 1029.54 1029.10 1028.56 1027.91 1027.18 1026.40 1025.59 1024.77 1023.95 1023.13 1022.30 1021.48 1020.68 1019.94 1019.33 1018.90 1018.70 1018.73 1019.00 1019.43 1019.97 1020.51 1020.98 1021.33
1029.01 1030.00 1030.70 1031.07 1031.20 1031.17 1031.09 1031.06 1031.16 1031.42 1031.81 1032.26 1032.69 1033.02 1033.18 1033.15 1032.94 1032.59 1032.17 1031.74 1031.34 1031.00 1030.69 1030.39 1030.05 1029.62 1029.11 1028.49 1027.79 1027.05 1026.30 1025.55 1024.81 1024.06 1023.30 1022.49 1021.64 1020.77 1019.94 1019.22 1018.69 1018.40 1018.39 1018.65 1019.12 1019.72 1020.35 1020.91 1021.34
1029.89 1030.68 1031.15 1031.33 1031.30 1031.16 1031.02 1030.99 1031.11 1031.40 1031.81 1032.26 1032.68 1032.98 1033.10 1033.04 1032.82 1032.48 1032.10 1031.71 1031.36 1031.05 1030.75 1030.42 1030.03 1029.54 1028.94 1028.25 1027.52 1026.76 1026.03 1025.34 1024.66 1023.99 1023.28 1022.50 1021.64 1020.73 1019.83 1019.03 1018.42 1018.08 1018.03 1018.29 1018.80 1019.46 1020.18 1020.83 1021.35
1030.74 1031.33 1031.61 1031.63 1031.48 1031.26 1031.10 1031.06 1031.19 1031.49 1031.90 1032.33 1032.71 1032.96 1033.03 1032.93 1032.68 1032.34 1031.96 1031.60 1031.26 1030.95 1030.64 1030.28 1029.83 1029.27 1028.61 1027.88 1027.11 1026.36 1025.65 1025.00 1024.39 1023.77 1023.10 1022.35 1021.49 1020.57 1019.63 1018.78 1018.12 1017.74 1017.68 1017.94 1018.47 1019.19 1019.98 1020.73 1021.35
1031.61 1032.02 1032.15 1032.05 1031.81 1031.55 1031.36 1031.31 1031.45 1031.74 1032.12 1032.51 1032.83 1033.01 1033.02 1032.86 1032.56 1032.19 1031.78 1031.40 1031.05 1030.71 1030.36 1029.96 1029.46 1028.86 1028.16 1027.40 1026.62 1025.88 1025.20 1024.59 1024.02 1023.44 1022.81 1022.08 1021.23 1020.30 1019.35 1018.48 1017.80 1017.39 1017.31 1017.57 1018.12 1018.88 1019.73 1020.56 1021.28
1032.50 1032.78 1032.79 1032.61 1032.32 1032.03 1031.82 1031.77 1031.88 1032.14 1032.47 1032.80 1033.05 1033.15 1033.08 1032.84 1032.48 1032.04 1031.58 1031.14 1030.73 1030.34 1029.93 1029.48 1028.94 1028.31 1027.60 1026.84 1026.09 1025.37 1024.72 1024.14 1023.59 1023.04 1022.42 1021.70 1020.87 1019.94 1019.00 1018.13 1017.44 1017.02 1016.92 1017.17 1017.72 1018.49 1019.38 1020.27 1021.07
1033.43 1033.60 1033.54 1033.31 1032.99 1032.68 1032.47 1032.39 1032.46 1032.66 1032.93 1033.18 1033.34 1033.35 1033.20 1032.89 1032.44 1031.92 1031.38 1030.85 1030.35 1029.87 1029.39 1028.88 1028.31 1027.67 1026.97 1026.24 1025.52 1024.84 1024.22 1023.65 1023.12 1022.56 1021.95 1021.23 1020.40 1019.49 1018.56 1017.70 1017.01 1016.58 1016.46 1016.69 1017.21 1017.97 1018.87 1019.81 1020.68
1034.33 1034.44 1034.35 1034.10 1033.78 1033.47 1033.23 1033.11 1033.12 1033.24 1033.42 1033.57 1033.65 1033.58 1033.35 1032.96 1032.43 1031.83 1031.18 1030.54 1029.93 1029.35 1028.78 1028.20 1027.60 1026.95 1026.28 1025.59 1024.91 1024.26 1023.67 1023.11 1022.57 1022.00 1021.37 1020.64 1019.82 1018.92 1018.01 1017.16 1016.48 1016.04 1015.90 1016.09 1016.57 1017.30 1018.18 1019.13 1020.06
1035.17 1035.27 1035.18 1034.95 1034.65 1034.32 1034.05 1033.87 1033.79 1033.81 1033.87 1033.93 1033.91 1033.76 1033.47 1033.02 1032.42 1031.73 1030.99 1030.23 1029.50 1028.79 1028.12 1027.47 1026.82 1026.18 1025.52 1024.87 1024.24 1023.62 1023.04 1022.48 1021.92 1021.33 1020.67 1019.93 1019.11 1018.23 1017.34 1016.52 1015.84 1015.40 1015.22 1015.36 1015.78 1016.45 1017.31 1018.27 1019.24
1035.93 1036.06 1036.02 1035.84 1035.55 1035.22 1034.90 1034.62 1034.43 1034.31 1034.25 1034.18 1034.07 1033.86 1033.51 1033.01 1032.37 1031.61 1030.78 1029.91 1029.05 1028.22 1027.43 1026.69 1026.00 1025.33 1024.69 1024.07 1023.46 1022.88 1022.30 1021.73 1021.15 1020.52 1019.84 1019.09 1018.27 1017.41 1016.55 1015.76 1015.10 1014.64 1014.44 1014.52 1014.88 1015.49 1016.30 1017.25 1018.25
1036.62 1036.83 1036.87 1036.76 1036.50 1036.15 1035.76 1035.37 1035.02 1034.74 1034.52 1034.32 1034.10 1033.82 1033.43 1032.90 1032.23 1031.42 1030.51 1029.55 1028.57 1027.62 1026.72 1025.88 1025.12 1024.42 1023.77 1023.16 1022.57 1022.00 1021.43 1020.84 1020.23 1019.59 1018.89 1018.14 1017.33 1016.50 1015.68 1014.92 1014.28 1013.82 1013.58 1013.60 1013.90 1014.45 1015.22 1016.15 1017.18
1037.28 1037.60 1037.76 1037.73 1037.52 1037.14 1036.66 1036.13 1035.60 1035.12 1034.71 1034.35 1034.02 1033.66 1033.22 1032.67 1031.98 1031.14 1030.18 1029.14 1028.06 1026.99 1025.97 1025.03 1024.19 1023.44 1022.76 1022.14 1021.56 1020.98 1020.41 1019.82 1019.21 1018.55 1017.86 1017.12 1016.35 1015.56 1014.78 1014.05 1013.43 1012.97 1012.70 1012.68 1012.91 1013.40 1014.13 1015.05 1016.10
1037.96 1038.43 1038.72 1038.78 1038.61 1038.20 1037.62 1036.92 1036.19 1035.49 1034.87 1034.33 1033.86 1033.40 1032.92 1032.35 1031.64 1030.78 1029.78 1028.67 1027.50 1026.32 1025.19 1024.15 1023.22 1022.40 1021.67 1021.03 1020.43 1019.86 1019.29 1018.71 1018.10 1017.46 1016.79 1016.09 1015.37 1014.63 1013.90 1013.22 1012.61 1012.14 1011.85 1011.78 1011.96 1012.40 1013.09 1013.99 1015.06
1038.68 1039.31 1039.74 1039.90 1039.76 1039.32 1038.62 1037.75 1036.81 1035.88 1035.03 1034.30 1033.67 1033.11 1032.56 1031.95 1031.22 1030.34 1029.31 1028.15 1026.90 1025.63 1024.40 1023.25 1022.21 1021.31 1020.52 1019.84 1019.22 1018.64 1018.08 1017.52 1016.94 1016.35 1015.74 1015.10 1014.43 1013.76 1013.08 1012.44 1011.85 1011.38 1011.06 1010.94 1011.07 1011.47 1012.13 1013.02 1014.10
1039.45 1040.23 1040.78 1041.03 1040.91 1040.42 1039.62 1038.59 1037.45 1036.30 1035.24 1034.31 1033.52 1032.84 1032.20 1031.54 1030.78 1029.87 1028.81 1027.59 1026.28 1024.92 1023.58 1022.33 1021.19 1020.20 1019.34 1018.59 1017.94 1017.36 1016.81 1016.28 1015.76 1015.23 1014.69 1014.13 1013.55 1012.95 1012.33 1011.72 1011.15 1010.66 1010.32 1010.16 1010.25 1010.61 1011.24 1012.13 1013.22
1040.21 1041.10 1041.75 1042.05 1041.94 1041.41 1040.52 1039.35 1038.04 1036.71 1035.46 1034.36 1033.42 1032.62 1031.89 1031.16 1030.36 1029.41 1028.30 1027.03 1025.65 1024.21 1022.78 1021.42 1020.17 1019.07 1018.12 1017.31 1016.61 1016.01 1015.47 1014.98 1014.52 1014.07 1013.62 1013.16 1012.67 1012.15 1011.59 1011.02 1010.47 1009.98 1009.61 1009.42 1009.47 1009.79 1010.41 1011.30 1012.41
1040.87 1041.82 1042.51 1042.82 1042.70 1042.13 1041.17 1039.92 1038.49 1037.04 1035.66 1034.43 1033.38 1032.47 1031.66 1030.86 1029.99 1028.99 1027.83 1026.50 1025.05 1023.53 1022.00 1020.53 1019.17 1017.95 1016.89 1015.98 1015.22 1014.57 1014.03 1013.56 1013.16 1012.80 1012.45 1012.10 1011.71 1011.28 1010.80 1010.28 1009.75 1009.26 1008.88 1008.67 1008.70 1009.01 1009.62 1010.51 1011.63
1041.32 1042.25 1042.91 1043.19 1043.03 1042.43 1041.44 1040.16 1038.70 1037.20 1035.77 1034.48 1033.36 1032.39 1031.51 1030.64 1029.70 1028.64 1027.42 1026.03 1024.51 1022.90 1021.27 1019.68 1018.19 1016.84 1015.64 1014.60 1013.74 1013.02 1012.43 1011.98 1011.61 1011.33 1011.08 1010.84 1010.57 1010.25 1009.86 1009.41 1008.92 1008.46 1008.09 1007.88 1007.91 1008.22 1008.84 1009.75 1010.89
1041.49 1042.31 1042.86 1043.06 1042.85 1042.23 1041.25 1040.00 1038.59 1037.14 1035.75 1034.48 1033.36 1032.36 1031.43 1030.51 1029.51 1028.38 1027.09 1025.64 1024.04 1022.34 1020.61 1018.89 1017.26 1015.74 1014.38 1013.18 1012.16 1011.32 1010.66 1010.17 1009.82 1009.58 1009.42 1009.29 1009.15 1008.96 1008.69 1008.34 1007.94 1007.54 1007.22 1007.05 1007.10 1007.43 1008.07 1009.00 1010.17
Thickness
5696 5698 5697 5689 5670 5651 5650 5659 5668 5672 5675 5680 5682 5681 5676 5671 5670 5667 5670 5676 5679 5680 5682 5684 5687 5689 5691 5693 5694 5695 5696 5697 5698 5699 5700 5701 5701 5701 5701 5702 5702 5702 5702 5702 5702 5702 5701 5701 5700
5691 5692 5686 5671 5652 5638 5645 5656 5662 5668 5672 5675 5673 5672 5667 5663 5665 5664 5666 5670 5673 5676 5678 5680 5682 5685 5686 5688 5690 5691 5692 5693 5694 5695 5696 5696 5697 5697 5697 5698 5698 5698 5698 5698 5698 5698 5697 5697 5697
5686 5684 5668 5653 5641 5638 5646 5654 5658 5664 5668 5667 5660 5660 5657 5654 5656 5657 5661 5665 5667 5669 5672 5674 5677 5680 5682 5683 5685 5686 5687 5689 5689 5691 5691 5692 5692 5693 5693 5693 5693 5693 5693 5694 5694 5693 5693 5693 5692
5674 5666 5654 5641 5637 5642 5646 5650 5653 5655 5657 5655 5650 5645 5645 5647 5648 5650 5655 5658 5660 5662 5665 5667 5671 5674 5676 5678 5680 5681 5682 5683 5684 5685 5686 5687 5687 5688 5688 5688 5688 5688 5689 5689 5689 5689 5689 5688 5688
5662 5649 5637 5626 5631 5637 5640 5644 5647 5645 5643 5642 5640 5633 5632 5638 5642 5644 5647 5650 5652 5655 5657 5660 5663 5667 5669 5671 5673 5675 5676 5677 5679 5680 5681 5682 5682 5682 5682 5682 5683 5683 5684 5684 5684 5684 5684 5684 5684
5642 5634 5620 5615 5623 5631 5632 5633 5634 5631 5629 5629 5627 5623 5622 5628 5631 5634 5638 5641 5644 5646 5649 5652 5655 5658 5661 5664 5665 5668 5669 5671 5672 5674 5675 5676 5676 5677 5677 5677 5678 5678 5678 5679 5679 5679 5679 5679 5679
5630 5620 5613 5613 5614 5618 5621 5623 5618 5616 5615 5614 5616 5611 5613 5616 5620 5624 5629 5632 5634 5637 5640 5644 5647 5649 5652 5655 5658 5660 5662 5664 5665 5667 5668 5669 5670 5671 5671 5671 5672 5672 5673 5673 5673 5674 5674 5674 5674
5623 5611 5606 5602 5605 5607 5609 5611 5608 5605 5603 5606 5606 5600 5600 5605 5610 5614 5617 5621 5624 5627 5630 5634 5637 5641 5644 5646 5649 5651 5654 5655 5658 5659 5661 5662 5663 5664 5664 5665 5666 5666 5667 5667 5668 5668 5668 5668 5668
5617 5597 5591 5595 5596 5596 5598 5598 5598 5597 5594 5593 5593 5593 5596 5598 5600 5603 5605 5608 5612 5616 5620 5624 5628 5632 5635 5637 5640 5642 5645 5647 5649 5651 5653 5654 5656 5657 5657 5658 5659 5659 5660 5660 5661 5661 5661 5662 5662
5597 5583 5587 5592 5591 5588 5587 5585 5585 5584 5581 5579 5580 5582 5585 5587 5588 5590 5593 5596 5600 5604 5608 5613 5617 5621 5625 5628 5631 5633 5635 5638 5640 5642 5644 5646 5647 5648 5649 5650 5652 5652 5652 5653 5654 5655 5655 5655 5655
5586 5577 5581 5583 5584 5581 5578 5575 5575 5571 5568 5568 5569 5572 5574 5575 5576 5578 5581 5585 5589 5593 5598 5602 5606 5611 5615 5618 5621 5624 5626 5628 5630 5633 5634 5636 5638 5639 5641 5642 5643 5644 5645 5646 5647 5647 5648 5648 5648
5573 5572 5573 5572 5573 5571 5568 5565 5561 5559 5560 5563 5562 5564 5564 5564 5565 5567 5569 5574 5578 5582 5587 5592 5596 5600 5604 5608 5611 5613 5615 5618 5620 5622 5625 5627 5628 5629 5631 5632 5634 5635 5637 5638 5639 5640 5640 5641 5641
5562 5561 5563 5562 5560 5557 5557 5553 5550 5549 5551 5552 5552 5552 5552 5553 5554 5556 5559 5563 5567 5571 5575 5580 5586 5590 5593 5597 5600 5602 5605 5607 5610 5612 5615 5617 5619 5620 5621 5623 5625 5627 5629 5630 5631 5632 5633 5633 5634
5554 5552 5551 5552 5551 5549 5546 5543 5541 5541 5542 5541 5540 5539 5541 5541 5542 5545 5547 5551 5555 5560 5563 5569 5575 5579 5583 5586 5588 5591 5594 5598 5600 5603 5605 5606 5608 5610 5612 5614 5616 5618 5620 5621 5623 5624 5625 5625 5626
5547 5541 5540 5541 5542 5540 5537 5533 5531 5533 5533 5531 5529 5529 5530 5531 5532 5534 5536 5540 5544 5548 5552 5557 5563 5568 5572 5575 5578 5581 5584 5587 5590 5593 5595 5597 5598 5600 5603 5605 5607 5609 5611 5612 5613 5615 5616 5617 5617
5534 5527 5523 5530 5530 5529 5525 5520 5524 5522 5521 5519 5519 5519 5519 5521 5522 5524 5527 5530 5533 5537 5541 5545 5551 5556 5561 5565 5568 5571 5573 5577 5580 5583 5585 5587 5589 5591 5593 5595 5597 5599 5602 5604 5605 5606 5607 5608 5608
5513 5506 5509 5516 5520 5517 5512 5509 5513 5511 5511 5510 5509 5508 5508 5509 5511 5514 5516 5518 5522 5526 5530 5534 5539 5545 5550 5554 5558 5561 5564 5567 5570 5573 5576 5578 5580 5582 5584 5586 5587 5590 5592 5594 5596 5597 5598 5599 5600
5502 5498 5500 5501 5506 5504 5499 5500 5502 5501 5500 5498 5497 5497 5496 5498 5499 5502 5504 5507 5510 5514 5519 5523 5528 5533 5539 5543 5547 5551 5554 5557 5560 5564 5565 5568 5570 5572 5574 5576 5577 5580 5583 5585 5587 5587 5588 5590 5591
5500 5495 5491 5493 5497 5492 5490 5491 5491 5491 5489 5487 5484 5484 5484 5485 5488 5490 5492 5495 5499 5503 5507 5512 5517 5522 5528 5532 5536 5540 5543 5547 5551 5554 5556 5559 5561 5564 5565 5567 5568 5570 5573 5575 5577 5578 5579 5580 5582
5494 5487 5481 5484 5489 5485 5480 5482 5484 5482 5480 5477 5474 5473 5472 5473 5476 5480 5482 5484 5487 5491 5496 5502 5507 5512 5517 5522 5526 5530 5534 5538 5541 5544 5547 5550 5552 5554 5557 5558 5560 5561 5563 5565 5567 5568 5569 5570 5573
5489 5480 5476 5474 5476 5476 5472 5475 5476 5475 5471 5468 5466 5463 5461 5463 5464 5468 5471 5473 5475 5479 5484 5491 5496 5501 5506 5511 5515 5519 5522 5526 5530 5533 5537 5539 5542 5545 5547 5549 5550 5552 5554 5555 5557 5559 5560 5561 5562
5480 5480 5476 5471 5459 5454 5459 5453 5467 5463 5461 5460 5456 5452 5451 5452 5454 5457 5460 5461 5464 5468 5473 5479 5485 5490 5495 5499 5504 5507 5512 5516 5519 5523 5526 5528 5530 5533 5537 5539 5541 5542 5544 5545 5548 5550 5551 5552 5552
5472 5473 5468 5464 5452 5444 5446 5441 5455 5451 5450 5450 5447 5443 5442 5442 5444 5447 5449 5451 5454 5457 5462 5468 5473 5479 5483 5488 5493 5497 5501 5505 5508 5512 5515 5517 5520 5523 5526 5529 5531 5532 5534 5536 5538 5539 5541 5542 5543
5466 5462 5459 5448 5439 5439 5441 5436 5444 5439 5440 5441 5438 5435 5433 5433 5435 5437 5439 5442 5444 5448 5452 5457 5462 5467 5472 5476 5481 5485 5489 5493 5496 5500 5503 5507 5510 5512 5515 5519 5522 5523 5524 5526 5528 5529 5530 5531 5533
5455 5447 5439 5434 5424 5432 5435 5431 5433 5434 5432 5432 5430 5427 5425 5425 5427 5428 5430 5433 5435 5438 5442 5446 5451 5456 5460 5465 5469 5473 5477 5481 5485 5489 5492 5496 5499 5501 5505 5509 5512 5513 5515 5516 5518 5519 5520 5521 5522
5441 5436 5429 5426 5420 5422 5423 5422 5428 5427 5424 5423 5421 5418 5417 5416 5417 5419 5421 5423 5425 5428 5432 5436 5440 5445 5449 5454 5457 5461 5465 5468 5473 5477 5481 5485 5488 5491 5494 5498 5501 5503 5504 5506 5508 5510 5510 5511 5512
5435 5422 5421 5412 5403 5396 5408 5411 5422 5421 5418 5414 5412 5411 5408 5408 5409 5410 5412 5414 5416 5419 5422 5426 5430 5435 5439 5442 5446 5449 5453 5456 5460 5464 5468 5472 5476 5480 5484 5488 5490 5492 5494 5496 5498 5499 5500 5501 5502
5426 5418 5406 5403 5405 5404 5406 5406 5413 5413 5408 5404 5401 5400 5400 5401 5401 5402 5404 5406 5408 5410 5413 5417 5421 5424 5428 5432 5436 5439 5442 5445 5448 5452 5457 5461 5465 5469 5472 5475 5479 5481 5483 5485 5486 5488 5489 5489 5490
5413 5407 5399 5394 5395 5394 5396 5409 5410 5406 5401 5397 5394 5393 5393 5393 5394 5395 5396 5397 5399 5402 5405 5407 5411 5414 5417 5420 5424 5428 5432 5435 5437 5441 5445 5450 5454 5458 5461 5464 5467 5470 5472 5474 5476 5477 5478 5479 5479
5405 5397 5388 5392 5387 5377 5380 5398 5405 5398 5393 5389 5387 5387 5386 5386 5387 5388 5389 5390 5392 5394 5396 5398 5401 5404 5407 5410 5413 5417 5421 5424 5427 5430 5435 5438 5443 5447 5450 5454 5457 5460 5462 5463 5465 5467 5468 5469 5469